Location: Mound City (historical)
(34.0564°N, 117.2656°W)
Time: 03:09:16
(UTC+00:00)

Cosmos 2151 - Pass Details

Date: 08 September 2024
Orbit: 567 x 587 km, 82.5° (Epoch: 03 October)

Event Time Altitude Azimuth Distance (km) Brightness Sun altitude
Rises 12:38:29 0° 357° (N) 2,771 6.6 -10.9°
Reaches altitude 10° 12:40:42 10° 1° (N) 1,870 5.7 -10.4°
Maximum altitude 12:44:47 62° 82° (E) 640 3.5 -9.6°
Drops below altitude 10° 12:48:51 10° 164° (SSE) 1,864 5.6 -8.8°
Sets 12:51:02 0° 167° (SSE) 2,760 6.4 -8.4°
